{"data":{"norad_id":51284,"intl_designator":"2022-007A","name":"LUDI TANCE 1-01A (L-SA*)","alt_names":[],"object_type":"PAYLOAD","status":"ACTIVE","operator":null,"country":"PRC","launch_date":"2022-01-25","launch_site_code":"JSC","launch_vehicle":null,"mission":null,"orbit_class":"UNKNOWN","rcs_meters":null,"size_class":null,"mass_kg":null,"dimensions":null,"purposes":[],"wikipedia_slug":null,"has_3d_model":false,"image_url":null,"decayed_at":null,"tle_current":{"epoch":"2026-09-20T23:30:28.475136Z","epoch_age_seconds":71753,"freshness":"FRESH","line1":"1 51284U 22007A   26263.97949624  .00000229  00000+0  30541-4 0  9999","line2":"2 51284  97.8114 270.0437 0001580  91.3859 268.7538 14.88408715252727","mean_motion":14.88408715,"eccentricity":0.000158,"inclination_deg":97.8114,"raan_deg":270.0437,"arg_perigee_deg":91.3859,"mean_anomaly_deg":268.7538,"bstar":3.0541e-5,"rev_number":25272,"period_min":96.74761948703,"perigee_km":601.80393942148,"apogee_km":604.0099493079,"semimajor_km":6981.0439443647,"source":"CELESTRAK","updated_at":"2026-09-21T09:00:08.266655Z"}}}